UWE-4 (43880 NORAD) Tracking and Keplerian Element Data

This shows tracking and keplerian element data for the satellite.

Feedback or suggestion? Click here.




ElementValue
Catalog43880
NameUWE-4
Epoch Orbit21310
Epoch Day324.71325582
Epoch Year2022
RAAN228.2729
Inclination97.6578
Eccentricity0.0011163
Argument of Perigee147.4212
Mean Anonmoly212.7702
Mean Motion14.99186156
Decay Rate2.42E-05
L11 43880U 18111E 22324.71325582 .00002420 00000+0 20336-3 0 9995
L22 43880 97.6578 228.2729 0011163 147.4212 212.7702 14.99186156213100



Live tracking and technical data element details for UWE-4 (NORAD 43880). UWE-4 can be tracked NOW for your location showing map with azimuth and elevation plus other details from your city location.







IsCatalogInMostPopularTable: catalog: 43880, numindb: 292
Update: records affected: 1



GetName: 43880 UWE-4

Hit Count: updated at: Fri, 02 Dec 2022 12:49:28 GMT